EW1527 Weather Reports


Display with metric or nautical units.
time (UTC)temp
F
wind
direction
speed
MPH
gust
MPH
rain 1hr
in
rain 24hr
in
rain mn
in
humidity
%
barometer
mb
20260504183100 70 1 10.0 22.0 0.00 0.00 0.00 32 1012.5
20260504181606 71 1 6.0 12.0 0.00 0.00 0.00 32 1012.7
20260504181504 71 1 6.0 12.0 0.00 0.00 0.00 32 1012.7
20260504180100 70 1 7.0 15.0 0.00 0.00 0.00 34 1012.8
20260504180003 70 1 6.0 15.0 0.00 0.00 0.00 33 1012.8
20260504174600 69 1 5.0 15.0 0.00 0.00 0.00 33 1013.1
20260504173105 69 1 6.0 15.0 0.00 0.00 0.00 34 1013.1
20260504171604 69 1 6.0 20.0 0.00 0.00 0.00 35 1013.5
20260504081558 49 1 4.0 9.0 0.00 0.00 0.00 56 1016.0
20260504060107 49 1 3.0 7.0 0.00 0.00 0.00 48 1015.9
20260504050115 50 1 1.0 4.0 0.00 0.00 0.00 47 1015.8
20260504044557 50 1 2.0 9.0 0.00 0.00 0.00 46 1015.7
20260504043009 51 1 4.0 9.0 0.00 0.00 0.00 45 1015.6
20260504041501 51 1 3.0 7.0 0.00 0.00 0.00 46 1015.4
20260504040008 51 1 4.0 9.0 0.00 0.00 0.00 45 1015.4
20260504034504 51 1 3.0 8.0 0.00 0.00 0.00 44 1015.2
20260504033001 52 1 4.0 9.0 0.00 0.00 0.00 44 1015.2
20260504031501 52 1 4.0 13.0 0.00 0.00 0.00 43 1015.1
20260504030003 52 1 3.0 9.0 0.00 0.00 0.00 44 1015.0
20260504024507 52 1 4.0 9.0 0.00 0.00 0.00 43 1015.1
20260504023002 52 1 3.0 8.0 0.00 0.00 0.00 42 1015.1
20260504021502 53 1 4.0 8.0 0.00 0.00 0.00 42 1015.1
20260504020003 53 1 4.0 9.0 0.00 0.00 0.00 42 1015.0
20260504014507 53 1 3.0 8.0 0.00 0.00 0.00 41 1015.0
20260504013001 53 1 3.0 8.0 0.00 0.00 0.00 41 1014.9
20260504011501 54 1 2.0 6.0 0.00 0.00 0.00 41 1014.7
20260504010003 54 1 2.0 5.0 0.00 0.00 0.00 40 1014.5
20260504004500 55 1 2.0 5.0 0.00 0.00 0.00 39 1014.4
20260504003001 55 1 2.0 6.0 0.00 0.00 0.00 37 1014.1
20260504001502 56 1 2.0 8.0 0.00 0.00 0.00 37 1014.0
20260504000004 57 1 4.0 10.0 0.00 0.00 0.00 35 1013.9
20260503234501 57 1 3.0 10.0 0.00 0.00 0.00 34 1013.7
20260503233001 58 1 4.0 12.0 0.00 0.00 0.00 33 1013.5
20260503231502 58 1 5.0 16.0 0.00 0.00 0.00 32 1013.6
20260503230002 58 1 7.0 16.0 0.00 0.00 0.00 31 1013.5
20260503224600 59 1 4.0 16.0 0.00 0.00 0.00 31 1013.4
20260503223100 59 1 6.0 15.0 0.00 0.00 0.00 30 1013.3
20260503221602 59 1 10.0 24.0 0.00 0.00 0.00 29 1013.3
20260503220100 59 1 12.0 21.0 0.00 0.00 0.00 29 1013.3
20260503220011 59 1 11.0 21.0 0.00 0.00 0.00 29 1013.3
20260503214559 59 1 7.0 19.0 0.00 0.00 0.00 29 1013.3
20260503213100 59 1 8.0 21.0 0.00 0.00 0.00 30 1013.2
20260503211604 59 1 7.0 19.0 0.00 0.00 0.00 28 1013.2
20260503210100 59 1 13.0 26.0 0.00 0.00 0.00 29 1013.3
20260503210002 59 1 13.0 26.0 0.00 0.00 0.00 29 1013.3
20260503204600 59 1 5.0 17.0 0.00 0.00 0.00 31 1013.5
20260503203115 57 1 9.0 20.0 0.00 0.00 0.00 31 1013.7
20260503201601 57 1 9.0 21.0 0.00 0.00 0.00 31 1013.6
20260503200100 57 1 7.0 15.0 0.00 0.00 0.00 32 1013.7
20260503200002 57 1 6.0 15.0 0.00 0.00 0.00 32 1013.6
20260503194603 58 1 12.0 27.0 0.00 0.00 0.00 30 1013.6
20260503193100 56 1 10.0 23.0 0.00 0.00 0.00 31 1013.9
20260503191600 57 1 9.0 19.0 0.00 0.00 0.00 30 1013.9
20260503191502 58 1 7.0 22.0 0.00 0.00 0.00 31 1014.0
20260503190100 56 1 9.0 20.0 0.00 0.00 0.00 34 1014.0
20260503190004 56 1 6.0 20.0 0.00 0.00 0.00 34 1014.0
20260503184624 56 1 7.0 18.0 0.00 0.00 0.00 33 1014.2